This is the latest recevied weather packets stored in our database for station/object KE0PRS. If no packets are shown the sender has not sent any weather packets the latest 10 day(s).
| Time | Temp. | Humidity | Pressure | Rain* | Wind** | Luminosity | Snow |
|---|---|---|---|---|---|---|---|
| 1777931629 | 31.11° C | 19% | 1001.5 hPa | 0 mm | - | 400 W/m² | - |
| 1777931326 | 31.11° C | 18% | 1001.5 hPa | 0 mm | - | 429 W/m² | - |
| 1777931023 | 31.11° C | 17% | 1001.7 hPa | 0 mm | - | 462 W/m² | - |
| 1777930719 | 31.11° C | 17% | 1001.5 hPa | 0 mm | - | 271 W/m² | - |
| 1777930415 | 31.11° C | 17% | 1001.4 hPa | 0 mm | - | 451 W/m² | - |
| 1777930113 | 31.11° C | 16% | 1001.7 hPa | 0 mm | - | 477 W/m² | - |
| 1777929809 | 31.11° C | 16% | 1001.7 hPa | 0 mm | - | 431 W/m² | - |
| 1777929507 | 31.11° C | 17% | 1001.7 hPa | 0 mm | - | 509 W/m² | - |
| 1777929208 | 31.67° C | 17% | 1001.6 hPa | 0 mm | - | 557 W/m² | - |
| 1777928906 | 31.11° C | 16% | 1002 hPa | 0 mm | - | 585 W/m² | - |
| 1777928603 | 30.56° C | 16% | 1002.2 hPa | 0 mm | - | 598 W/m² | - |
| 1777928300 | 31.11° C | 18% | 1002.4 hPa | 0 mm | - | 578 W/m² | - |
| 1777927997 | 31.11° C | 17% | 1002.3 hPa | 0 mm | - | 555 W/m² | - |
| 1777927695 | 31.11° C | 18% | 1002.4 hPa | 0 mm | - | 612 W/m² | - |
| 1777927394 | 30.56° C | 18% | 1002.6 hPa | 0 mm | - | 692 W/m² | - |
| 1777927093 | 30.56° C | 18% | 1002.4 hPa | 0 mm | - | 623 W/m² | - |
| 1777926789 | 30.56° C | 18% | 1002.6 hPa | 0 mm | - | 694 W/m² | - |
| 1777926484 | 30.56° C | 18% | 1002.8 hPa | 0 mm | - | 634 W/m² | - |
| 1777926182 | 30.56° C | 18% | 1002.9 hPa | 0 mm | - | 630 W/m² | - |
| 1777925878 | 31.11° C | 18% | 1002.7 hPa | 0 mm | - | 645 W/m² | - |
| 1777925576 | 31.11° C | 18% | 1003 hPa | 0 mm | - | 631 W/m² | - |
| 1777925274 | 31.11° C | 18% | 1003.2 hPa | 0 mm | - | 662 W/m² | - |
| 1777924969 | 31.11° C | 18% | 1002.9 hPa | 0 mm | - | 606 W/m² | - |
| 1777924666 | 30.56° C | 18% | 1003.2 hPa | 0 mm | - | 774 W/m² | - |
| 1777924361 | 31.11° C | 18% | 1003.2 hPa | 0 mm | - | 776 W/m² | - |
* Rain latest hour (hover to see other rain measurements)
** Current wind speed in m/s (hover to see current wind gust speed)